Regional Weather Roundup
Issued by NWS

Home | Current Version | Previous Version | Graphics & Text | Print | Product List | Glossary On
Versions: 1 2 3 4 5 6 7 8 9 10 11 12 13 14 15 16 17 18 19 20 21 22 23 24 25 26 27 28 29 30 31 32 33 34 35 36 37 38 39 40 41 42 43 44 45 46 47 48 49 50
000
ASUS43 KMKX 271411
RWRWI

WISCONSIN REGIONAL WEATHER ROUNDUP
NATIONAL WEATHER SERVICE MILWAUKEE/SULLIVAN WI
900 AM CDT MON APR 27 2015

NOTE: "FAIR" INDICATES FEW OR NO CLOUDS BELOW 12,000 FEET WITH NO
SIGNIFICANT WEATHER AND/OR OBSTRUCTIONS TO VISIBILITY.

WIZ001-002-006>008-014>016-023>028-271500-
NORTHWEST WISCONSIN

CITY           SKY/WX    TMP DP  RH WIND       PRES   REMARKS
SUPERIOR ARPT  SUNNY     43  31  63 CALM      30.24R
ASHLAND        SUNNY     47  30  51 NE5       30.23S
HAYWARD        SUNNY     47  31  53 CALM      30.22S
SIREN          SUNNY     48  30  49 CALM      30.23S
CUMBERLAND     SUNNY     48  28  46 CALM      30.22S
RICE LAKE      SUNNY     48  31  52 N3        30.23S
CHETEK         SUNNY     47  32  54 NW5       30.22S
LADYSMITH      SUNNY     47  31  53 N6        30.22R
EAU CLAIRE     SUNNY     49  28  44 NE5       30.21R
MENOMONIE      SUNNY     47  28  47 N3        30.22S
NEW RICHMOND   SUNNY     49  30  47 NE5       30.22S
OSCEOLA        SUNNY     47  32  54 CALM      30.25S
$$

WIZ003>005-009-010-017-018-271500-
NORTH CENTRAL WISCONSIN

CITY           SKY/WX    TMP DP  RH WIND       PRES   REMARKS
MANITOWISH WTR SUNNY     46  29  51 N8        30.18F
ARBOR VITAE    SUNNY     49  32  51 N15       30.17S
WOODRUFF       SUNNY     49  32  51 N15       30.17S
RHINELANDER    SUNNY     46  28  49 N12       30.17S
EAGLE RIVER    SUNNY     45  27  50 N9        30.16F
LAND O LAKES   SUNNY     45  29  52 N9        30.18S
PHILLIPS       SUNNY     46  29  51 N8        30.18F
TOMAHAWK       SUNNY     47  29  50 CALM      30.17F
MEDFORD        SUNNY     47  31  53 N9        30.17S
MERRILL        SUNNY     48  30  51 N9        30.16F
$$

WIZ029-030-035-036-043>047-271500-
CENTRAL WISCONSIN

CITY           SKY/WX    TMP DP  RH WIND       PRES   REMARKS
WAUSAU         SUNNY     47  29  49 N9        30.15S
MOSINEE        SUNNY     46  30  53 N8        30.16S
MARSHFIELD     SUNNY     50  30  46 NE13G18   30.17S
STEVENS POINT  SUNNY     46  29  49 N6        30.16S
WAUPACA        SUNNY     50  31  48 N8        30.15S
WAUTOMA        SUNNY     50  30  46 N7        30.15S
WISC RAPIDS    SUNNY     51  29  42 N12       30.17S
CAMP DOUGLAS   SUNNY     50  34  53 NW10      30.16S
$$

WIZ011>013-019>022-031-037>040-048>050-271500-
NORTHEAST WISCONSIN

CITY           SKY/WX    TMP DP  RH WIND       PRES   REMARKS
ANTIGO         SUNNY     46  31  55 N10       30.15S
SHAWANO        SUNNY     51  32  48 N7        30.14S
OCONTO         SUNNY     48  32  53 N12       30.13S
STURGEON BAY   SUNNY     43  30  61 N17G23    30.15R
GREEN BAY      SUNNY     51  34  52 N8        30.13R
MANITOWOC      SUNNY     48  34  58 N10       30.12R
APPLETON       MOSUNNY   46  30  53 N10       30.14R
CLINTONVILLE   SUNNY     46  32  57 N9        30.14S
OSHKOSH        SUNNY     48  31  51 N10       30.13S
$$

WIZ032>034-041-042-053>061-271500-
SOUTHWEST WISCONSIN

CITY           SKY/WX    TMP DP  RH WIND       PRES   REMARKS
LA CROSSE      SUNNY     49  32  52 W5        30.21R
SPARTA         SUNNY     47  31  54 CALM      30.20R
VIROQUA        SUNNY     48  32  53 NW6       30.19R
BOSCOBEL       SUNNY     48  35  60 SW5       30.20R
PRAIRIE DU CHI SUNNY     47  33  57 W3        30.21R
PLATTEVILLE    SUNNY     48  32  53 N5        30.18R
$$

WIZ056-057-062-063-064-067-068-271500-
SOUTH CENTRAL WISCONSIN

CITY           SKY/WX    TMP DP  RH WIND       PRES   REMARKS
REEDSBURG      SUNNY     48  32  55 W6        30.17R
BARABOO/DELLS  SUNNY     48  30  49 NW7       30.16R
LONE ROCK        N/A     48  33  56 VRB5      30.18R
MINERAL POINT  SUNNY     50  32  50 N6        30.18R
MADISON        MOSUNNY   50  32  50 N8        30.15R
MIDDLETON      SUNNY     50  30  46 N9        30.16S
WATERTOWN      SUNNY     47  34  61 N7        30.14R
MONROE         SUNNY     48  32  53 N13       30.15S
JANESVILLE     SUNNY     48  30  49 N8        30.14R
$$

WIZ051-052-058>065-066-070>072-271500-
SOUTHEAST WISCONSIN

CITY           SKY/WX    TMP DP  RH WIND       PRES   REMARKS
MILWAUKEE      MOSUNNY   48  33  56 N14G23    30.13R
WAUKESHA       SUNNY     46  30  53 NW7       30.13R
MILWAUKEE/TIMM SUNNY     48  32  53 N7        30.12R
RACINE         SUNNY     48  33  56 N16G22    30.13R
BURLINGTON     SUNNY     46  32  58 N9        30.13R
KENOSHA        SUNNY     49  34  56 N13       30.12R
FOND DU LAC    SUNNY     49  32  52 N12       30.13R
SHEBOYGAN      SUNNY     49  34  56 N10       30.11R
WEST BEND      SUNNY     46  32  57 N9        30.11S
JUNEAU         SUNNY     46  32  58 N9        30.14S
$$

LSZ147-162-271500-
LAKE SUPERIOR

STATION/POSITION TIME  TEMP    WIND        PRES    WAVE
                       AIR SEA DIR/SP/G            HT/PER
                 (UTC) (F)     (DEG/KT/KT) (MB)    (FT/S)
W MID LAKE BUOY  1350   38 35  340/  4/  4 1024.9F   0
DEVILS ISLAND    1400   37     240/  6/  7 1024.8R
PORT WING        1340   42     330/  3/  4 1024.0R
SAXON HARBOR     1340   42        CALM     1023.7R
$$

LMZ867-665-643>646-271500-
LAKE MICHIGAN

STATION/POSITION TIME  TEMP    WIND        PRES    WAVE
                       AIR SEA DIR/SP/G            HT/PER
                 (UTC) (F)     (DEG/KT/KT) (MB)    (FT/S)
CHAMBERS ISLAND  1300   42     320/ 10/ 12 1020.3R
NORTHPORT PIER   1300   39     330/ 10/ 12 1020.0R
SISTER BAY       1302   42     360/ 11/ 12   N/A
KEWAUNEE LAKESHO 1300   44     350/  9/ 11 1018.7S
SHEBOYGAN LAKESH 1400   45     360/ 13/ 14 1020.1R
PORT WASHINGTON  1300   48     350/  6/ 11 1020.3R
MILWAUKEE LAKESH 1300   46     360/ 14/ 19   N/A
KENOSHA   LAKESH 1400   45      10/ 15/ 20 1020.0R
$$

TC  - TEMPERATURE IN CELSIUS
VSB - VISIBILITY IN STATUTE MILES
WCI - WIND CHILL INDEX
HX  - HEAT INDEX




USA.gov is the U.S. government's official web portal to all federal, state and local government web resources and services.